Weather History for Pellston, MI

Change the Weather History Date:

Thursday, May 15, 2014

  Actual Average Record
Temperature  
Mean Temperature 40 °F -  
Max Temperature 45 °F 66 °F 95 °F (1998)
Min Temperature 35 °F 41 °F 22 °F (1953)
Degree Days  
Heating Degree Days 24    
Moisture  
Dew Point 36 °F    
Average Humidity 87    
Maximum Humidity 93    
Minimum Humidity 56    
Precipitation  
Precipitation 0.24 in - - ()
Sea Level Pressure  
Sea Level Pressure 29.92 in    
Wind  
Wind Speed 10 mph (NNW)    
Max Wind Speed 16 mph    
Max Gust Speed 24 mph    
Visibility 5 miles    
Events Rain    
Averages and records for this station are not official NWS values.
T = Trace of Precipitation, MM = Missing Value Source: NWS Daily Summary

Daily Weather History Graph

Daily Weather History Graph

Search for Another Location

Airport:

Trip Planner

Search our weather history database for the weather conditions in past years. The results will help you decide how hot, cold, wet, or windy it might be!

Date:

Astronomy

May. 15, 2014 Rise Set
Actual Time 6:08 AM EDT 9:03 PM EDT
Civil Twilight 5:33 AM EDT 9:38 PM EDT
Nautical Twilight 4:49 AM EDT 10:22 PM EDT
Astronomical Twilight 3:57 AM EDT 11:15 PM EDT
Moon 10:10 PM EDT (5/15) 6:55 AM EDT (5/15)
Length of Visible Light 16h 04m
Length of Day
14h 55m
Full, 99% of the Moon is Illuminated
May 15
Full
May 21
Last Quarter
May 28
New
Jun 5
First Quarter
Jun 13
Full

Hourly Weather History & Observations

Time (EDT) Temp. Windchill Dew Point Humidity Pressure Visibility Wind Dir Wind Speed Gust Speed Precip Events Conditions
12:54 AM 45.0 °F 41.8 °F 30.0 °F 56% 30.13 in 10.0 mi North 5.8 mph - N/A   Overcast
1:54 AM 44.1 °F 41.5 °F 32.0 °F 63% 30.11 in 10.0 mi North 4.6 mph - 0.00 in Rain Light Rain
2:54 AM 41.0 °F 37.1 °F 35.1 °F 79% 30.10 in 7.0 mi North 5.8 mph - 0.02 in Rain Light Rain
3:02 AM 41.0 °F 35.8 °F 35.1 °F 79% 30.08 in 6.0 mi North 8.1 mph - 0.01 in Rain Light Rain
3:46 AM 39.9 °F 34.5 °F 36.0 °F 86% 30.06 in 10.0 mi North 8.1 mph - 0.05 in Rain Light Rain
3:54 AM 39.9 °F 35.8 °F 36.0 °F 86% 30.07 in 10.0 mi NE 5.8 mph - 0.06 in Rain Light Rain
4:54 AM 39.9 °F 36.7 °F 36.0 °F 86% 30.04 in 9.0 mi NNE 4.6 mph - 0.03 in Rain Light Rain
5:54 AM 39.0 °F 34.0 °F 35.1 °F 86% 30.04 in 10.0 mi North 6.9 mph - 0.02 in Rain Light Rain
6:54 AM 39.0 °F 34.0 °F 35.1 °F 86% 30.01 in 5.0 mi North 6.9 mph - 0.01 in Rain Light Rain
7:54 AM 39.0 °F 31.0 °F 36.0 °F 89% 29.96 in 5.0 mi NNW 13.8 mph - 0.00 in Rain Light Rain
8:17 AM 39.9 °F 32.9 °F 36.0 °F 86% 29.95 in 6.0 mi North 11.5 mph - 0.00 in Rain Light Rain
8:30 AM 39.0 °F 31.0 °F 37.0 °F 93% 29.94 in 1.8 mi North 13.8 mph - 0.01 in Rain Light Rain
8:46 AM 39.0 °F 31.0 °F 37.0 °F 93% 29.93 in 2.0 mi North 13.8 mph - 0.03 in Rain Light Rain
8:54 AM 39.9 °F 31.8 °F 37.0 °F 89% 29.94 in 2.5 mi North 15.0 mph - 0.03 in Rain Light Rain
9:01 AM 39.9 °F 32.1 °F 37.0 °F 89% 29.93 in 3.0 mi North 13.8 mph - 0.01 in Rain Light Rain
9:54 AM 39.9 °F 31.8 °F 37.0 °F 89% 29.93 in 7.0 mi North 15.0 mph - 0.01 in Rain Light Rain
10:54 AM 41.0 °F 32.8 °F 37.9 °F 89% 29.87 in 9.0 mi North 16.1 mph 24.2 mph 0.03 in Rain Light Rain
11:54 AM 41.0 °F 33.1 °F 37.9 °F 89% 29.86 in 10.0 mi NNE 15.0 mph - 0.00 in   Overcast
12:54 PM 42.1 °F 34.9 °F 39.0 °F 89% 29.83 in 10.0 mi NNE 13.8 mph - N/A   Overcast
1:54 PM 42.1 °F 35.2 °F 39.0 °F 89% 29.82 in 5.0 mi North 12.7 mph - 0.00 in   Overcast
2:45 PM 42.1 °F 36.6 °F 39.0 °F 89% 29.81 in 2.5 mi NNW 9.2 mph - 0.00 in Rain Light Rain
3:16 PM 42.1 °F 35.2 °F 39.9 °F 92% 29.81 in 2.0 mi NNW 12.7 mph - 0.01 in Rain Light Rain
3:47 PM 42.1 °F 36.1 °F 39.0 °F 89% 29.81 in 2.5 mi WNW 10.4 mph - 0.02 in Rain Light Rain
3:54 PM 42.1 °F 34.9 °F 39.0 °F 89% 29.83 in 2.5 mi NW 13.8 mph - 0.02 in Rain Light Rain
4:19 PM 42.1 °F 35.7 °F 39.0 °F 89% 29.81 in 3.0 mi NNW 11.5 mph - 0.00 in Rain Light Rain
4:54 PM 42.1 °F 34.5 °F 39.0 °F 89% 29.84 in 3.0 mi NW 15.0 mph 20.7 mph 0.00 in Rain Light Rain
5:01 PM 42.1 °F 34.5 °F 39.0 °F 89% 29.82 in 2.5 mi NW 15.0 mph - 0.00 in Rain Light Rain
5:28 PM 42.1 °F 34.9 °F 37.9 °F 85% 29.82 in 3.0 mi NNW 13.8 mph 23.0 mph 0.00 in Rain Light Rain
5:54 PM 41.0 °F 33.9 °F 37.9 °F 89% 29.84 in 3.0 mi NW 12.7 mph - 0.01 in Rain Light Rain
6:39 PM 39.0 °F 31.0 °F 37.0 °F 93% 29.84 in 3.0 mi NW 13.8 mph - 0.00 in   Overcast
6:52 PM 39.2 °F 31.2 °F 35.6 °F 87% 29.84 in 3.0 mi WNW 13.8 mph - 0.00 in   Overcast
6:54 PM 39.0 °F 31.4 °F 36.0 °F 89% 29.87 in 3.0 mi NW 12.7 mph - 0.00 in   Overcast
7:11 PM 39.0 °F 32.3 °F 37.0 °F 93% 29.85 in 2.5 mi WNW 10.4 mph - N/A   Overcast
7:54 PM 37.9 °F 30.0 °F 35.1 °F 89% 29.90 in 2.5 mi WNW 12.7 mph - 0.00 in   Overcast
8:33 PM 37.9 °F 30.0 °F 35.1 °F 89% 29.89 in 3.0 mi WNW 12.7 mph - N/A   Overcast
8:54 PM 37.0 °F 29.3 °F 35.1 °F 93% 29.91 in 2.5 mi WNW 11.5 mph - N/A   Overcast
9:09 PM 37.0 °F 28.5 °F 34.0 °F 89% 29.88 in 3.0 mi WNW 13.8 mph - N/A   Overcast
9:54 PM 36.0 °F 28.0 °F 34.0 °F 93% 29.93 in 4.0 mi WNW 11.5 mph - N/A   Overcast
10:54 PM 36.0 °F 28.0 °F 34.0 °F 93% 29.94 in 3.0 mi WNW 11.5 mph - 0.00 in   Overcast
11:54 PM 35.1 °F 27.4 °F 33.1 °F 92% 29.95 in 3.0 mi WNW 10.4 mph - N/A   Overcast